Wetbulb
54.20 54.47 54.51 54.32 54.26 54.92 55.46 55.43 54.56 55.06 56.16 57.01 57.13 57.30 57.42 57.72 57.84 58.20 58.68 59.04 59.64 60.18 60.65 60.68 60.99 61.26 61.36 60.97 60.64 60.64 60.72 60.99 61.61 60.87 60.11 60.43 60.83 61.42 62.06 62.36 62.72 62.83 62.62 62.35 62.33 62.24 62.05 61.99 61.71 61.62 61.46 61.08 60.97 61.08 61.18 61.28 60.94 60.54 60.18 59.97 59.81 59.76 59.39 58.93 58.68 58.17 57.66 57.32 57.49
53.90 53.99 53.60 52.45 52.85 54.26 55.49 55.46 55.19 55.51 56.21 57.26 57.23 57.20 57.37 57.66 57.95 58.14 58.39 58.75 59.54 60.36 60.88 60.98 60.70 61.23 61.59 61.06 60.98 60.97 61.18 61.41 61.86 61.28 60.78 60.91 61.28 61.70 62.02 62.38 62.76 62.69 62.35 62.17 62.08 62.04 62.06 61.86 61.70 61.54 61.34 61.21 61.07 60.97 60.91 61.01 61.03 60.66 60.25 60.09 60.08 60.08 59.81 59.36 59.01 58.67 58.09 57.84 58.05
54.00 53.96 53.84 53.75 54.47 55.15 55.88 56.20 56.49 56.75 56.90 57.28 57.20 57.29 57.40 57.81 58.13 58.28 58.41 58.73 59.37 60.25 60.97 61.30 60.79 61.30 61.88 61.41 61.52 61.61 61.68 62.04 62.04 61.91 61.68 61.61 61.61 61.86 62.20 62.74 62.65 62.24 61.88 62.04 62.04 62.04 61.97 61.86 61.41 60.85 60.66 61.14 60.94 60.85 60.88 61.10 60.81 60.55 60.40 60.21 60.30 60.12 59.87 59.60 59.44 59.14 58.80 58.44 58.49
53.61 53.88 54.11 54.20 54.51 55.04 55.61 56.29 56.77 57.11 57.29 57.67 57.56 57.47 57.58 58.20 58.32 58.47 58.71 58.90 59.08 59.81 60.71 61.54 60.91 61.48 62.09 61.34 61.57 61.79 61.75 61.39 61.84 62.09 62.31 62.02 61.97 62.13 62.42 62.76 62.47 62.33 62.22 62.26 62.08 62.04 61.95 61.79 61.44 61.06 60.85 61.03 60.85 60.80 60.88 60.99 60.82 60.54 60.52 60.56 60.52 60.36 60.09 59.93 59.85 59.58 59.20 58.88 58.72
53.21 53.75 54.20 54.47 54.56 55.22 56.16 56.51 57.19 57.55 58.00 58.54 58.36 58.18 58.22 58.77 58.87 58.88 58.84 58.51 58.87 59.59 60.71 61.86 61.37 61.70 62.11 61.50 61.48 61.75 61.84 61.48 60.02 61.18 62.81 62.40 62.38 62.51 62.49 62.49 62.24 62.24 62.13 62.17 61.99 61.90 61.79 61.69 61.61 61.36 61.25 61.12 61.07 61.00 61.09 61.14 60.98 60.89 60.79 60.88 60.61 60.43 60.25 60.16 60.07 59.84 59.36 58.85 58.78
53.18 53.18 53.36 53.81 54.74 56.06 57.34 57.75 57.74 57.97 58.44 58.85 58.76 58.44 58.33 58.92 59.28 59.30 58.99 58.54 58.82 59.35 60.07 60.51 60.17 60.58 61.29 61.68 61.48 61.66 61.86 61.82 61.31 61.93 62.81 62.58 62.58 62.47 62.31 62.13 62.08 62.13 62.13 62.04 61.99 61.79 61.70 61.72 61.52 61.30 61.41 61.21 61.25 61.18 61.36 61.23 60.98 60.76 60.69 60.56 60.60 60.49 60.49 60.22 60.22 59.98 59.54 58.94 58.87
52.73 53.00 53.63 54.62 56.21 57.23 57.64 57.81 58.13 58.31 58.49 58.78 58.60 58.41 58.58 58.87 59.43 59.43 59.14 58.82 58.94 59.12 59.32 59.47 59.88 60.65 61.40 61.75 61.46 61.59 61.68 61.66 62.02 62.27 62.45 62.31 62.31 62.13 61.93 61.88 62.04 61.99 61.99 61.90 61.81 61.81 61.77 61.68 61.30 60.75 60.14 59.83 60.65 61.12 61.25 61.16 60.98 60.67 60.47 60.21 60.38 60.51 60.51 60.24 60.22 59.80 59.57 58.94 58.78
52.28 53.45 54.98 56.45 56.98 57.25 57.41 57.61 58.24 58.42 58.33 58.11 58.02 58.23 58.53 58.96 59.23 59.41 59.36 59.08 58.92 59.03 59.50 60.48 61.27 61.72 61.93 61.84 61.46 61.41 61.55 61.48 61.76 61.84 61.82 61.64 61.59 61.77 61.79 61.88 61.77 61.86 61.86 61.90 61.77 61.68 61.59 61.59 61.30 60.96 60.65 60.56 60.65 60.83 61.05 61.06 60.88 60.62 60.22 60.11 60.20 60.38 60.51 60.40 60.22 59.81 59.35 58.91 58.67
54.18 54.98 55.88 56.50 56.87 57.14 57.51 57.88 57.79 57.52 57.21 57.30 57.51 57.95 58.51 58.91 59.17 59.54 59.54 59.27 58.81 59.03 59.84 61.06 61.51 61.70 61.77 61.77 61.50 61.41 61.28 61.30 61.30 61.30 61.30 61.19 61.28 61.41 61.57 61.75 61.70 61.70 61.79 61.86 61.72 61.63 61.50 61.43 61.12 60.94 60.96 60.85 60.78 60.78 60.85 60.91 60.73 60.43 60.17 60.06 59.93 60.11 60.24 60.31 60.04 59.77 59.45 59.03 58.66
55.35 55.53 55.80 56.15 56.79 57.34 57.61 57.88 57.03 56.48 56.25 56.70 57.05 57.63 57.59 56.34 57.99 59.27 59.80 59.45 59.18 59.57 60.26 61.15 61.51 61.72 61.61 61.68 61.41 61.19 61.21 61.21 61.02 61.02 61.02 60.93 61.01 61.30 61.52 61.57 61.48 61.39 61.48 61.70 61.59 61.59 61.41 61.30 61.05 60.96 60.85 60.94 60.80 60.71 60.80 60.82 60.55 60.25 60.13 59.93 59.75 59.75 59.88 60.06 59.77 59.59 59.27 58.82 58.72
54.54 54.68 55.13 55.67 56.80 57.21 57.30 57.43 56.40 56.22 56.70 57.33 57.68 57.95 57.87 56.86 58.31 59.32 59.81 59.81 59.99 60.28 60.81 61.33 61.61 61.50 61.39 61.50 61.23 61.10 61.02 61.12 61.02 61.12 61.30 61.19 61.23 61.43 61.59 61.41 61.52 61.34 61.39 61.48 61.52 61.52 61.30 61.14 60.76 60.67 60.67 60.76 60.71 60.62 60.62 60.70 60.46 60.16 59.95 59.93 59.70 59.61 59.57 59.57 59.61 59.52 59.23 58.96 58.72
54.00 54.23 54.81 55.67 56.89 57.43 57.34 56.98 56.48 56.75 57.25 57.87 58.23 58.50 58.77 59.04 59.61 59.70 59.79 60.17 60.40 60.80 61.23 61.70 61.72 61.50 61.39 61.41 61.14 60.93 60.77 61.12 61.30 61.37 61.50 61.61 61.77 61.72 61.63 61.54 61.41 61.32 61.34 61.39 61.48 61.39 61.12 60.85 60.67 60.40 60.40 60.49 60.60 60.49 60.44 60.43 60.25 60.17 59.86 59.79 59.70 59.43 59.39 59.31 59.34 59.43 59.34 59.14 58.87
53.91 54.27 55.13 56.21 57.16 57.42 57.33 56.98 57.07 57.25 57.61 57.88 58.33 58.60 59.01 59.59 59.58 59.76 59.93 60.40 60.60 61.23 61.75 61.88 61.77 61.68 61.41 61.30 61.19 61.12 61.22 61.40 61.55 61.68 61.66 61.79 61.68 61.68 61.59 61.41 61.41 61.32 61.34 61.39 61.43 61.34 61.12 60.89 60.62 60.35 60.22 60.13 60.33 60.42 60.35 60.34 60.16 60.08 59.77 59.61 59.52 59.34 59.30 59.21 59.34 59.34 59.34 59.16 58.71
53.98 54.36 55.04 56.30 56.98 57.15 57.24 57.06 57.16 57.34 57.66 57.93 58.29 58.85 59.21 59.78 59.38 59.50 59.94 60.60 60.96 61.50 62.04 62.04 61.68 61.48 61.43 61.39 61.19 61.39 61.66 61.91 61.93 61.88 61.79 61.52 61.70 61.61 61.52 61.39 61.43 61.34 61.39 61.41 61.43 61.23 61.14 60.98 60.70 60.34 60.26 60.04 60.13 60.22 60.26 60.19 60.10 59.93 59.80 59.54 59.32 59.23 59.23 59.23 59.23 59.34 59.07 58.71 58.44
54.11 54.35 54.86 55.94 56.52 56.88 57.06 56.88 56.98 57.21 57.48 58.02 58.39 58.85 59.39 59.83 59.12 59.21 59.92 60.75 61.01 61.55 61.91 61.82 61.48 61.30 61.28 61.50 61.55 61.86 62.06 62.13 62.04 61.77 61.61 61.39 61.52 61.52 61.48 61.39 61.39 61.39 61.39 61.41 61.39 61.23 61.18 60.91 60.73 60.46 60.25 60.08 60.08 60.08 60.17 60.10 60.00 59.91 59.82 59.75 59.48 59.35 59.35 59.35 59.27 59.18 58.96 58.60 58.42
54.15 54.34 54.95 55.76 56.16 56.42 56.60 56.69 56.89 57.03 57.40 58.03 58.39 58.94 59.28 59.68 59.47 59.57 59.84 60.59 60.86 61.12 61.30 61.39 61.30 61.39 61.40 61.00 61.39 61.75 62.04 62.17 61.99 61.77 61.61 61.57 61.57 61.48 61.39 61.50 61.41 61.41 61.41 61.41 61.21 61.30 61.25 61.14 60.97 60.64 60.28 59.98 60.08 59.99 59.99 59.98 60.02 59.91 59.91 59.91 59.73 59.55 59.28 59.17 59.17 59.17 59.08 58.72 58.37
54.11 54.70 55.17 55.71 55.88 56.15 56.33 56.42 56.80 57.03 57.40 57.94 58.21 58.85 59.14 59.49 59.87 59.57 59.26 59.75 60.41 60.66 60.75 60.93 60.93 61.04 60.91 60.38 60.86 61.37 61.84 61.95 61.86 61.88 61.75 61.57 61.57 61.48 61.39 61.50 61.32 61.41 61.41 61.32 61.23 61.12 61.12 61.16 61.07 60.79 60.37 60.25 60.08 59.99 59.90 59.89 59.98 59.98 59.93 59.93 59.82 59.73 59.48 58.69 59.08 59.21 59.12 58.67 58.27
54.34 54.98 55.44 55.52 55.60 55.88 56.07 56.25 56.61 56.89 57.30 57.94 58.21 58.85 59.23 59.39 59.67 59.50 59.19 59.41 60.20 60.42 60.38 60.48 60.77 60.68 60.59 60.59 60.86 61.22 61.39 61.75 61.84 61.84 61.84 61.84 61.75 61.66 61.57 61.50 61.41 61.50 61.39 61.30 61.23 61.14 61.14 61.12 61.07 60.98 60.70 60.52 60.35 60.17 60.08 59.98 60.08 60.08 59.99 59.90 59.80 59.80 59.62 59.18 59.39 59.39 59.30 58.85 58.27
54.88 55.15 55.43 55.34 55.34 55.53 55.58 55.59 56.12 56.75 57.30 57.93 58.48 59.01 59.41 59.21 59.66 59.66 59.76 59.61 59.59 59.95 60.13 60.21 60.41 60.50 60.48 60.66 61.02 60.82 60.82 61.68 61.84 61.93 61.93 62.02 61.93 61.75 61.57 61.59 61.50 61.59 61.48 61.39 61.21 61.23 61.14 61.14 61.03 60.94 60.71 60.58 60.35 60.26 60.17 60.08 60.04 59.95 60.06 59.97 59.88 59.77 59.77 59.63 59.57 59.57 59.39 59.21 58.58
55.23 55.55 55.51 55.19 55.34 55.58 55.67 56.03 56.39 56.94 57.48 58.21 58.83 59.38 59.65 59.23 59.67 59.76 59.76 59.66 59.43 59.70 59.97 59.93 60.14 60.32 60.68 61.02 61.39 61.40 61.40 61.84 62.04 62.02 61.93 62.02 61.93 61.84 61.86 61.77 61.68 61.68 61.57 61.39 61.30 61.23 61.14 61.05 60.96 60.85 60.67 60.42 60.24 60.15 60.15 59.97 59.88 59.84 59.84 59.84 59.84 59.79 59.68 59.59 59.63 59.53 59.53 59.39 59.10
55.62 55.81 55.73 55.60 55.80 56.07 56.33 56.87 57.24 57.61 57.93 58.39 59.10 59.74 59.92 59.10 59.56 59.83 59.87 59.78 59.96 60.03 60.30 60.39 60.68 60.86 61.13 61.57 61.93 62.20 62.20 62.09 62.40 62.47 62.40 62.22 61.95 61.86 61.68 61.50 61.50 61.50 61.50 61.50 61.41 61.23 61.14 61.10 60.96 60.78 60.60 60.20 60.12 59.93 59.93 59.85 59.76 59.57 59.66 59.85 59.75 59.70 59.70 59.59 59.59 59.54 59.44 59.44 59.39
56.07 56.09 56.06 56.07 56.34 56.60 57.05 57.72 58.13 58.42 58.56 58.74 59.65 60.10 60.02 59.21 59.57 59.92 60.28 60.37 60.55 60.73 60.95 61.31 61.30 61.30 61.21 61.21 61.12 61.22 61.13 61.00 61.37 61.55 61.57 61.57 61.66 61.84 62.20 62.36 62.40 62.13 61.82 61.46 61.46 61.41 61.23 60.96 60.96 60.78 60.56 60.32 60.12 59.85 59.76 59.58 59.58 59.48 59.48 59.66 59.66 59.66 59.66 59.70 59.59 59.54 59.54 59.44 59.44
56.40 56.45 56.43 56.57 56.80 56.57 56.66 57.78 58.68 58.95 59.23 59.47 59.19 58.83 58.21 56.86 57.40 58.38 59.28 59.47 58.57 58.20 58.23 58.58 58.86 58.95 58.95 58.76 58.50 58.14 57.88 57.70 57.79 57.88 58.15 58.41 58.42 58.33 58.51 58.86 58.50 58.15 58.20 59.05 60.24 60.67 61.05 61.41 60.92 60.65 60.56 60.39 60.21 59.85 59.58 59.49 59.31 59.49 59.48 59.39 59.39 59.49 59.49 59.66 59.61 59.50 59.50 59.50 59.36
56.75 56.69 56.85 57.21 57.24 57.33 57.61 58.33 58.65 58.56 58.48 58.26 56.49 55.40 54.77 54.77 55.05 55.40 55.85 55.89 55.52 55.52 55.51 55.88 56.24 56.50 56.72 56.89 56.84 56.57 56.12 55.46 54.83 54.29 54.02 53.93 53.71 53.45 53.27 53.09 52.24 50.88 49.53 48.49 47.81 49.98 54.09 59.21 60.84 61.04 60.50 60.30 60.21 59.93 59.75 59.66 59.48 59.48 59.39 59.21 59.31 59.22 59.32 59.31 59.39 59.39 59.34 59.34 59.16
56.98 56.94 57.03 57.61 57.78 57.97 57.84 57.49 55.49 54.13 53.41 53.41 53.32 53.32 53.32 53.41 53.36 53.36 53.36 53.45 53.44 53.53 53.71 53.84 54.06 54.14 54.32 54.36 54.34 54.20 53.84 53.12 52.24 51.30 50.68 50.10 49.97 49.75 49.39 48.49 47.54 46.73 45.41 42.96 40.25 40.44 43.24 48.58 56.13 59.84 60.82 60.41 60.21 60.03 59.84 59.75 59.61 59.52 59.34 59.03 58.95 58.96 59.05 59.05 59.23 59.13 59.12 59.21 59.12
57.21 57.48 57.75 58.06 57.61 56.39 54.77 53.09 52.55 52.42 52.33 52.37 52.46 52.46 52.46 52.46 52.27 51.95 51.59 51.28 51.37 51.50 51.45 51.40 51.21 50.77 50.46 50.68 50.32 50.04 49.87 49.60 49.19 48.61 47.85 46.95 46.46 46.06 45.87 45.60 45.37 45.10 43.87 41.07 38.90 38.81 40.25 43.06 46.77 51.84 57.03 61.46 60.48 59.96 59.68 59.58 59.67 59.66 59.66 59.48 59.22 58.86 58.69 58.51 58.69 58.77 58.85 59.07 58.98
57.48 57.39 56.94 56.21 54.27 52.64 51.73 51.65 51.56 51.47 51.56 51.65 51.64 51.82 51.86 51.90 51.58 51.13 50.73 50.33 50.19 50.05 49.87 49.46 49.06 48.08 47.45 48.25 47.63 47.18 46.86 46.64 46.28 45.97 45.34 44.76 44.13 43.81 43.44 43.34 43.16 42.75 41.93 40.07 39.26 39.71 40.88 42.33 43.51 46.59 51.75 59.38 60.50 60.50 59.83 59.38 58.20 57.57 57.16 57.07 57.97 58.94 59.70 59.61 59.43 58.94 58.76 59.23 59.32
55.49 54.50 53.18 52.00 51.28 50.83 50.47 50.20 49.84 49.84 49.93 50.20 50.24 50.41 50.26 50.12 49.81 49.50 49.19 49.10 48.78 48.65 48.16 47.94 47.67 47.27 46.82 46.46 45.61 45.16 44.89 44.71 44.35 44.04 43.51 42.84 42.24 41.78 41.55 41.45 41.26 40.76 40.30 39.89 40.25 40.97 41.97 43.06 43.87 44.78 46.32 48.94 51.70 51.25 49.53 48.81 47.99 48.08 48.35 48.35 49.62 50.25 50.61 50.52 52.60 55.17 56.96 56.84 57.54
51.73 51.37 50.92 50.38 49.75 49.30 48.94 48.53 48.21 48.31 48.39 48.53 48.47 48.33 48.11 47.84 47.62 47.35 47.13 46.82 46.69 46.55 46.37 46.32 45.96 45.78 45.33 44.43 43.94 43.72 43.45 43.23 42.96 42.51 41.83 41.03 40.43 40.01 39.83 39.74 39.73 39.32 39.14 39.41 40.21 40.89 41.43 41.79 42.06 42.33 43.06 44.32 46.77 47.18 46.36 45.46 44.92 44.19 43.56 43.11 43.29 43.65 44.19 44.83 44.74 44.28 44.33 45.50 48.76
50.29 49.70 49.16 48.62 48.17 47.76 47.49 47.13 47.04 47.09 47.00 47.04 46.64 46.15 45.67 45.27 44.99 44.72 44.58 44.35 44.21 44.30 44.43 44.70 44.34 43.89 43.26 42.90 42.68 42.23 41.87 41.69 41.47 41.07 40.36 39.53 39.02 38.74 38.47 38.29 38.65 38.82 38.73 38.74 39.37 39.82 40.13 40.22 40.13 40.39 40.85 41.66 42.84 43.47 43.43 42.30 41.58 40.76 40.13 40.12 40.31 40.94 41.58 42.29 42.84 43.11 43.56 44.37 45.01
48.35 47.72 47.18 46.73 46.37 45.96 45.78 45.69 45.74 45.65 45.56 45.34 44.76 44.23 43.52 43.16 42.87 42.68 42.59 42.59 42.54 42.45 42.40 42.64 42.19 41.78 41.59 41.50 41.32 40.96 40.60 40.51 40.25 39.80 39.17 38.53 37.76 37.57 37.49 37.49 37.66 37.66 37.93 38.12 38.57 38.84 39.02 39.10 38.92 38.83 39.01 39.46 40.13 40.76 40.72 39.55 38.82 38.19 37.60 37.33 37.51 37.96 38.50 38.96 39.14 39.59 40.31 41.49 42.48
46.59 46.05 45.51 44.93 44.61 44.34 44.25 44.21 44.03 43.94 43.72 43.36 42.96 42.51 42.01 41.68 41.59 41.68 41.86 41.95 41.78 41.69 41.56 41.21 40.75 40.30 40.07 39.98 39.71 39.53 39.35 39.25 38.98 38.71 38.35 37.99 37.54 37.18 37.04 36.86 36.85 36.85 37.03 37.64 37.82 37.91 38.00 38.08 37.90 37.72 37.54 37.63 37.93 38.38 38.39 37.66 36.94 36.31 35.94 35.50 35.57 35.75 36.12 36.61 36.79 37.11 37.78 38.78 39.68
44.80 44.35 43.99 43.40 43.13 43.08 42.95 42.86 42.59 42.37 42.01 41.65 41.39 41.02 40.70 40.51 40.43 40.52 40.61 40.70 40.57 40.48 40.22 39.94 39.49 39.08 38.81 38.63 38.45 38.18 38.00 37.99 37.90 37.81 37.64 37.51 37.28 36.83 36.64 36.32 36.49 36.58 36.68 37.10 37.28 37.24 37.33 37.33 37.15 36.97 36.83 36.74 37.18 37.36 37.18 36.68 36.13 35.50 35.05 34.68 34.59 34.59 34.68 34.86 35.21 35.57 36.03 36.66 37.29
43.81 43.27 42.82 42.41 42.13 41.86 41.69 41.60 41.38 41.03 40.67 40.22 39.95 39.76 39.58 39.31 39.17 38.99 38.98 38.90 38.99 38.86 38.77 38.59 38.36 38.18 38.09 38.09 37.73 37.46 37.27 37.18 37.28 37.37 37.33 37.16 36.89 36.43 36.01 35.95 36.21 36.32 36.56 36.70 36.79 36.80 36.89 36.89 36.71 36.62 36.45 36.25 36.64 36.64 36.29 35.75 35.24 34.70 34.16 33.80 33.80 33.98 33.98 34.16 34.32 34.59 34.95 35.50 36.04
43.27 42.73 42.19 41.74 41.42 41.06 40.79 40.61 40.39 40.04 39.59 39.22 38.86 38.77 38.59 38.50 38.18 38.08 37.99 37.73 37.87 37.87 37.87 37.69 37.69 37.60 37.42 37.42 37.16 36.97 36.74 36.47 36.56 36.65 36.70 36.62 36.27 35.75 35.33 35.21 35.48 35.92 36.34 36.36 36.45 36.62 36.59 36.59 36.59 36.41 36.23 35.89 36.02 35.92 35.48 34.85 34.21 33.76 33.40 33.22 33.26 33.26 33.40 33.62 33.71 33.98 34.25 34.61 35.06
42.64 42.19 41.56 41.24 40.88 40.52 40.16 39.80 39.58 39.22 38.77 38.36 38.00 37.91 37.73 37.73 37.72 37.72 37.55 37.16 37.16 36.98 36.88 36.79 36.71 36.45 36.27 36.16 36.16 36.07 36.02 36.02 35.93 36.02 36.07 36.00 35.73 35.17 34.79 34.50 34.77 35.29 35.73 36.14 36.23 36.32 36.33 36.33 36.24 36.24 36.15 36.18 36.02 35.74 35.12 34.49 33.85 33.23 32.96 32.86 32.68 32.77 32.95 33.04 33.26 33.44 33.62 33.80 33.98
41.83 41.38 40.84 40.34 39.97 39.61 39.26 38.95 38.50 38.00 37.55 37.27 37.18 37.09 37.00 36.91 37.00 37.10 37.15 36.85 36.36 35.89 35.53 35.53 35.26 35.08 34.94 34.85 34.93 35.02 35.21 35.53 35.44 35.26 35.26 35.15 35.06 34.65 34.39 34.14 34.32 34.43 34.94 35.70 35.88 35.98 36.07 36.03 36.03 35.85 35.88 35.80 35.48 35.03 34.58 34.04 33.50 32.96 32.60 32.24 32.32 32.50 32.77 32.95 33.13 33.22 33.26 33.17 33.26
41.06 40.57 40.03 39.44 38.89 38.62 38.18 37.82 37.28 36.82 36.37 36.23 36.19 36.19 36.19 36.19 36.10 36.19 36.16 35.82 35.28 34.72 34.31 34.13 34.04 33.86 33.86 34.04 33.94 34.04 34.28 34.56 34.43 34.38 34.29 34.29 34.34 34.16 33.92 33.62 33.87 34.07 34.49 35.27 35.59 35.69 35.74 35.75 35.66 35.65 35.41 35.01 34.90 34.46 34.01 33.47 32.93 32.48 32.13 31.83 31.86 32.12 32.51 32.95 33.22 33.26 33.26 33.22 33.68
40.25 39.89 39.40 38.81 38.26 37.81 37.28 36.74 36.28 36.01 35.74 35.47 35.38 35.30 35.17 35.20 35.06 35.11 35.12 34.92 34.47 34.01 33.47 33.14 33.13 33.14 33.29 33.30 33.11 33.11 33.20 33.35 33.53 33.53 33.48 33.47 33.71 33.64 33.53 33.26 33.42 33.71 34.28 34.96 35.13 35.36 35.46 35.51 35.42 35.24 34.83 34.35 34.33 34.01 33.46 32.99 32.13 31.66 31.45 31.20 31.20 31.40 31.75 32.30 32.51 32.77 32.95 33.23 34.36
39.26 39.08 38.63 38.18 37.64 37.10 36.56 36.01 35.74 35.56 35.30 35.03 34.72 34.46 34.31 34.34 34.34 34.48 34.55 34.28 33.93 33.48 32.94 32.48 32.39 32.40 32.64 32.47 32.19 31.95 31.86 32.13 32.46 32.73 32.85 32.93 33.35 33.38 33.37 32.78 33.08 33.31 33.84 34.58 34.83 34.99 35.00 35.09 35.05 34.91 34.54 34.02 34.05 33.70 33.24 32.52 31.73 31.07 30.70 30.72 30.70 30.73 30.93 31.31 31.84 31.95 32.24 32.51 33.35
38.00 37.69 37.24 37.01 36.61 36.16 35.66 35.11 34.93 34.84 34.67 34.40 34.10 33.95 33.94 33.94 33.95 33.92 33.83 33.47 33.20 32.76 32.48 31.85 31.65 31.67 31.74 31.66 31.27 30.82 30.59 30.59 31.04 31.56 31.92 32.10 32.46 32.74 32.90 32.48 32.60 32.87 33.35 34.13 34.45 34.61 34.62 34.71 34.67 34.50 34.17 33.41 33.50 33.37 32.94 32.23 31.16 30.34 29.90 30.01 30.11 30.11 30.18 30.34 30.81 31.13 31.32 31.68 32.21
MSLP
995.41 995.45 995.49 995.61 995.69 995.73 995.77 995.85 995.93 996.05 996.21 996.41 996.61 996.81 997.05 997.25 997.45 997.65 997.81 997.93 998.05 998.17 998.33 998.41 998.45 998.57 998.73 998.89 999.13 999.33 999.49 999.69 999.81 1000.01 1000.21 1000.45 1000.65 1000.81 1000.93 1001.09 1001.17 1001.13 1001.01 1001.05 1001.61 1002.37 1003.05 1003.61 1003.97 1004.33 1004.65 1004.93 1005.21 1005.53 1005.73 1005.93 1006.05 1006.25 1006.49 1006.73 1007.05 1007.33 1007.61 1007.93 1008.25 1008.57 1008.89 1009.13 1009.29
995.33 995.41 995.45 995.61 995.61 995.61 995.69 995.81 995.97 996.09 996.21 996.37 996.57 996.77 996.97 997.17 997.33 997.53 997.73 997.85 997.93 998.05 998.17 998.25 998.41 998.53 998.65 998.81 999.01 999.17 999.33 999.45 999.61 999.77 1000.01 1000.21 1000.45 1000.69 1000.89 1001.05 1001.09 1001.05 1001.05 1001.25 1001.73 1002.45 1003.05 1003.53 1003.89 1004.29 1004.65 1005.01 1005.29 1005.53 1005.73 1005.85 1005.97 1006.21 1006.49 1006.73 1007.01 1007.33 1007.61 1007.97 1008.21 1008.53 1008.85 1009.09 1009.29
995.33 995.37 995.45 995.53 995.53 995.53 995.61 995.73 995.89 996.05 996.21 996.37 996.57 996.73 996.93 997.13 997.29 997.45 997.61 997.73 997.89 997.97 998.05 998.13 998.29 998.41 998.53 998.69 998.85 999.01 999.17 999.29 999.45 999.61 999.77 999.97 1000.25 1000.53 1000.73 1000.85 1000.89 1000.93 1001.13 1001.45 1001.93 1002.49 1003.05 1003.45 1003.89 1004.25 1004.61 1004.89 1005.17 1005.45 1005.61 1005.77 1005.97 1006.21 1006.49 1006.73 1007.01 1007.29 1007.61 1007.93 1008.21 1008.49 1008.81 1009.09 1009.29
995.33 995.41 995.45 995.45 995.41 995.45 995.49 995.61 995.81 996.01 996.17 996.33 996.57 996.73 996.93 997.09 997.21 997.37 997.53 997.69 997.81 997.93 997.97 998.01 998.17 998.33 998.45 998.61 998.73 998.89 999.01 999.17 999.33 999.45 999.57 999.81 1000.09 1000.25 1000.37 1000.45 1000.65 1000.89 1001.21 1001.61 1002.05 1002.57 1003.05 1003.45 1003.85 1004.21 1004.53 1004.81 1005.05 1005.29 1005.45 1005.73 1006.01 1006.25 1006.45 1006.73 1006.97 1007.25 1007.57 1007.89 1008.17 1008.45 1008.73 1009.01 1009.21
995.37 995.41 995.37 995.33 995.33 995.33 995.45 995.61 995.77 995.97 996.13 996.33 996.49 996.73 996.89 997.05 997.17 997.33 997.45 997.61 997.77 997.85 997.89 997.89 998.05 998.17 998.33 998.49 998.65 998.77 998.93 999.13 999.29 999.37 999.45 999.69 999.89 1000.01 1000.01 1000.17 1000.49 1000.89 1001.33 1001.73 1002.17 1002.61 1003.05 1003.45 1003.81 1004.17 1004.49 1004.73 1004.97 1005.17 1005.33 1005.61 1005.93 1006.17 1006.45 1006.73 1006.97 1007.21 1007.49 1007.77 1008.09 1008.37 1008.65 1008.89 1009.17
995.41 995.37 995.33 995.33 995.33 995.37 995.49 995.61 995.77 995.93 996.09 996.29 996.45 996.65 996.85 997.01 997.09 997.25 997.37 997.49 997.61 997.69 997.73 997.85 998.01 998.13 998.25 998.45 998.61 998.73 998.89 999.09 999.25 999.33 999.41 999.61 999.77 999.85 999.85 1000.01 1000.41 1000.89 1001.37 1001.81 1002.25 1002.65 1003.05 1003.45 1003.85 1004.17 1004.45 1004.73 1004.93 1005.13 1005.33 1005.61 1005.85 1006.13 1006.41 1006.69 1006.93 1007.17 1007.45 1007.73 1008.01 1008.29 1008.61 1008.89 1009.13
995.41 995.41 995.37 995.33 995.37 995.45 995.57 995.69 995.77 995.93 996.05 996.25 996.45 996.61 996.73 996.89 997.01 997.13 997.21 997.33 997.45 997.61 997.73 997.81 997.89 998.01 998.17 998.45 998.57 998.65 998.81 999.05 999.21 999.29 999.33 999.57 999.73 999.77 999.85 1000.01 1000.41 1000.89 1001.37 1001.85 1002.29 1002.73 1003.05 1003.41 1003.77 1004.09 1004.41 1004.69 1004.89 1005.17 1005.37 1005.61 1005.77 1006.01 1006.33 1006.61 1006.89 1007.13 1007.33 1007.65 1007.93 1008.21 1008.53 1008.81 1009.05
995.45 995.41 995.33 995.37 995.45 995.53 995.61 995.73 995.81 995.93 996.05 996.21 996.37 996.49 996.65 996.73 996.89 997.05 997.09 997.17 997.33 997.45 997.57 997.65 997.73 997.93 998.17 998.33 998.49 998.65 998.85 999.09 999.25 999.33 999.45 999.61 999.77 999.89 999.93 1000.13 1000.49 1000.93 1001.45 1001.89 1002.29 1002.69 1003.05 1003.41 1003.73 1004.01 1004.33 1004.61 1004.89 1005.13 1005.33 1005.53 1005.73 1005.97 1006.21 1006.49 1006.77 1007.05 1007.33 1007.61 1007.89 1008.17 1008.45 1008.69 1008.93
995.45 995.45 995.41 995.45 995.49 995.61 995.65 995.73 995.77 995.89 996.01 996.17 996.25 996.37 996.53 996.61 996.73 996.89 996.97 997.05 997.17 997.29 997.37 997.49 997.65 997.89 998.09 998.25 998.45 998.61 998.89 999.17 999.33 999.49 999.73 999.89 1000.01 1000.01 1000.09 1000.29 1000.65 1001.09 1001.53 1001.93 1002.33 1002.69 1003.05 1003.41 1003.69 1004.01 1004.25 1004.49 1004.77 1005.05 1005.29 1005.49 1005.69 1005.93 1006.21 1006.49 1006.77 1007.05 1007.33 1007.61 1007.89 1008.13 1008.37 1008.61 1008.89
995.45 995.45 995.49 995.53 995.61 995.61 995.65 995.73 995.81 995.89 996.01 996.09 996.17 996.33 996.41 996.53 996.65 996.73 996.77 996.85 996.93 997.13 997.25 997.37 997.57 997.77 998.01 998.17 998.37 998.61 998.89 999.17 999.41 999.61 999.85 1000.01 1000.05 1000.13 1000.21 1000.41 1000.73 1001.17 1001.57 1001.97 1002.33 1002.69 1003.01 1003.33 1003.65 1003.97 1004.25 1004.49 1004.73 1005.01 1005.21 1005.45 1005.65 1005.89 1006.21 1006.49 1006.73 1007.05 1007.33 1007.57 1007.81 1008.01 1008.29 1008.49 1008.73
995.45 995.49 995.57 995.61 995.61 995.65 995.69 995.73 995.81 995.89 995.93 996.01 996.13 996.21 996.33 996.45 996.49 996.49 996.57 996.65 996.81 996.93 997.05 997.17 997.37 997.61 997.77 998.01 998.33 998.61 998.85 999.09 999.37 999.61 999.81 999.89 1000.01 1000.09 1000.25 1000.49 1000.77 1001.13 1001.53 1002.01 1002.33 1002.69 1003.05 1003.33 1003.61 1003.97 1004.29 1004.53 1004.73 1005.01 1005.21 1005.41 1005.65 1005.89 1006.17 1006.45 1006.73 1006.97 1007.25 1007.49 1007.73 1007.97 1008.17 1008.41 1008.65
995.61 995.61 995.61 995.61 995.61 995.65 995.69 995.73 995.77 995.85 995.89 995.97 996.01 996.09 996.17 996.17 996.17 996.21 996.33 996.45 996.57 996.69 996.85 997.01 997.17 997.41 997.61 997.89 998.21 998.57 998.85 999.05 999.25 999.41 999.53 999.65 999.81 1000.01 1000.25 1000.53 1000.85 1001.17 1001.53 1001.97 1002.33 1002.61 1002.97 1003.33 1003.61 1003.93 1004.25 1004.53 1004.77 1005.01 1005.17 1005.41 1005.65 1005.89 1006.17 1006.45 1006.69 1006.93 1007.17 1007.45 1007.65 1007.89 1008.09 1008.33 1008.61
995.73 995.73 995.73 995.69 995.69 995.69 995.73 995.77 995.81 995.85 995.89 995.93 995.93 995.93 995.89 995.85 995.81 995.89 996.01 996.13 996.25 996.45 996.61 996.85 997.05 997.29 997.49 997.77 998.17 998.57 998.89 999.01 999.05 999.13 999.29 999.45 999.73 999.97 1000.29 1000.57 1000.89 1001.25 1001.61 1001.97 1002.29 1002.61 1002.93 1003.29 1003.61 1003.93 1004.21 1004.45 1004.73 1004.97 1005.17 1005.37 1005.61 1005.89 1006.13 1006.37 1006.61 1006.89 1007.09 1007.33 1007.53 1007.73 1008.01 1008.25 1008.49
995.85 995.85 995.81 995.73 995.73 995.73 995.73 995.81 995.85 995.89 995.93 995.93 995.89 995.77 995.65 995.53 995.53 995.61 995.73 995.89 996.01 996.17 996.41 996.69 996.97 997.21 997.49 997.77 998.25 998.61 998.77 998.77 998.81 998.97 999.17 999.45 999.73 1000.01 1000.33 1000.61 1000.93 1001.29 1001.65 1002.01 1002.33 1002.61 1002.93 1003.29 1003.61 1003.89 1004.17 1004.45 1004.73 1004.93 1005.17 1005.37 1005.61 1005.81 1006.01 1006.25 1006.49 1006.73 1006.97 1007.21 1007.45 1007.69 1007.93 1008.17 1008.41
995.97 995.93 995.89 995.81 995.81 995.81 995.81 995.89 995.89 995.97 996.01 996.01 995.85 995.61 995.45 995.33 995.45 995.57 995.69 995.81 995.93 996.05 996.29 996.61 997.05 997.33 997.61 997.93 998.25 998.45 998.53 998.53 998.65 998.89 999.17 999.49 999.77 1000.05 1000.37 1000.69 1001.05 1001.37 1001.73 1002.05 1002.37 1002.69 1003.01 1003.29 1003.61 1003.89 1004.17 1004.45 1004.69 1004.93 1005.17 1005.37 1005.57 1005.77 1005.97 1006.17 1006.37 1006.61 1006.85 1007.09 1007.33 1007.57 1007.81 1008.05 1008.33
996.05 996.01 995.97 995.89 995.89 995.89 995.93 995.97 996.01 996.05 996.09 996.01 995.77 995.53 995.37 995.37 995.45 995.61 995.73 995.85 996.01 996.17 996.37 996.73 997.17 997.49 997.81 998.09 998.21 998.25 998.25 998.37 998.61 998.93 999.25 999.61 999.89 1000.17 1000.45 1000.77 1001.13 1001.45 1001.77 1002.09 1002.45 1002.77 1003.05 1003.33 1003.61 1003.89 1004.17 1004.45 1004.65 1004.89 1005.17 1005.37 1005.61 1005.77 1005.97 1006.13 1006.33 1006.53 1006.73 1006.97 1007.17 1007.45 1007.65 1007.89 1008.17
996.13 996.09 996.05 996.05 996.05 996.05 996.05 996.05 996.09 996.17 996.21 996.17 995.93 995.69 995.49 995.49 995.61 995.69 995.85 996.01 996.17 996.33 996.61 996.93 997.33 997.69 997.97 998.25 998.33 998.21 998.21 998.45 998.73 999.05 999.37 999.69 999.97 1000.25 1000.57 1000.89 1001.17 1001.53 1001.85 1002.17 1002.45 1002.81 1003.17 1003.41 1003.65 1003.89 1004.17 1004.45 1004.65 1004.89 1005.13 1005.37 1005.61 1005.81 1005.97 1006.13 1006.29 1006.45 1006.65 1006.89 1007.09 1007.33 1007.57 1007.85 1008.09
996.21 996.21 996.17 996.17 996.21 996.21 996.21 996.21 996.17 996.21 996.29 996.33 996.17 995.93 995.73 995.69 995.81 995.97 996.05 996.13 996.25 996.45 996.73 997.05 997.45 997.85 998.13 998.33 998.33 998.25 998.33 998.57 998.85 999.13 999.45 999.73 1000.01 1000.33 1000.65 1000.97 1001.29 1001.61 1001.89 1002.21 1002.53 1002.89 1003.21 1003.45 1003.73 1003.97 1004.21 1004.45 1004.69 1004.89 1005.13 1005.33 1005.57 1005.73 1005.93 1006.09 1006.25 1006.45 1006.65 1006.85 1007.05 1007.25 1007.53 1007.77 1008.01
996.33 996.33 996.33 996.33 996.33 996.37 996.45 996.45 996.41 996.33 996.29 996.33 996.33 996.25 996.09 995.97 996.05 996.21 996.33 996.33 996.33 996.49 996.77 997.13 997.53 997.89 998.13 998.17 998.21 998.33 998.45 998.73 998.93 999.21 999.49 999.81 1000.13 1000.41 1000.73 1001.05 1001.41 1001.73 1002.01 1002.33 1002.69 1003.01 1003.29 1003.53 1003.81 1004.01 1004.29 1004.49 1004.73 1004.89 1005.17 1005.33 1005.57 1005.73 1005.89 1006.05 1006.25 1006.45 1006.61 1006.85 1007.01 1007.25 1007.49 1007.73 1007.97
996.41 996.41 996.45 996.45 996.45 996.53 996.61 996.69 996.73 996.61 996.41 996.29 996.37 996.45 996.53 996.49 996.45 996.53 996.61 996.69 996.73 996.89 997.13 997.41 997.73 997.93 998.05 998.13 998.25 998.37 998.57 998.77 999.05 999.33 999.65 999.97 1000.25 1000.57 1000.89 1001.17 1001.53 1001.89 1002.17 1002.45 1002.81 1003.13 1003.37 1003.61 1003.85 1004.05 1004.29 1004.53 1004.73 1004.97 1005.17 1005.37 1005.57 1005.73 1005.89 1006.05 1006.25 1006.45 1006.61 1006.85 1007.05 1007.25 1007.45 1007.73 1007.97
996.49 996.49 996.53 996.61 996.61 996.69 996.77 996.89 997.05 997.01 996.85 996.65 996.53 996.65 996.89 997.05 997.01 997.05 997.17 997.25 997.33 997.45 997.61 997.73 997.89 998.01 998.09 998.09 998.21 998.37 998.61 998.85 999.13 999.45 999.73 1000.09 1000.45 1000.77 1001.09 1001.37 1001.69 1002.01 1002.25 1002.53 1002.89 1003.17 1003.41 1003.65 1003.85 1004.05 1004.33 1004.53 1004.73 1004.97 1005.17 1005.37 1005.57 1005.73 1005.89 1006.05 1006.25 1006.45 1006.61 1006.85 1007.05 1007.29 1007.49 1007.73 1007.93
996.61 996.61 996.61 996.69 996.73 996.81 996.89 997.05 997.21 997.33 997.33 997.17 997.05 997.01 997.17 997.41 997.45 997.49 997.57 997.65 997.65 997.73 997.81 997.85 997.89 997.97 998.05 998.17 998.29 998.53 998.81 999.09 999.37 999.73 1000.01 1000.33 1000.65 1000.93 1001.17 1001.49 1001.73 1002.09 1002.45 1002.69 1002.97 1003.21 1003.45 1003.65 1003.89 1004.13 1004.33 1004.57 1004.73 1004.93 1005.17 1005.37 1005.57 1005.77 1005.93 1006.13 1006.33 1006.49 1006.69 1006.89 1007.09 1007.33 1007.49 1007.69 1007.89
996.65 996.69 996.73 996.77 996.81 996.89 996.97 997.09 997.17 997.33 997.41 997.45 997.45 997.45 997.53 997.73 997.81 997.81 997.81 997.89 997.97 997.97 997.93 997.89 997.89 998.01 998.17 998.45 998.61 998.89 999.25 999.57 999.89 1000.17 1000.45 1000.73 1001.05 1001.33 1001.61 1001.81 1002.09 1002.37 1002.65 1002.89 1003.05 1003.21 1003.45 1003.73 1003.97 1004.17 1004.37 1004.57 1004.81 1005.01 1005.17 1005.37 1005.61 1005.81 1006.01 1006.17 1006.37 1006.53 1006.73 1006.89 1007.13 1007.29 1007.45 1007.65 1007.81
996.73 996.77 996.85 996.89 996.93 996.97 997.05 997.05 997.13 997.21 997.33 997.45 997.61 997.69 997.77 997.93 998.05 998.13 998.17 998.17 998.13 998.13 998.13 998.13 998.17 998.33 998.57 998.81 999.05 999.29 999.61 999.89 1000.29 1000.61 1000.97 1001.21 1001.53 1001.77 1002.01 1002.29 1002.53 1002.85 1003.13 1003.33 1003.49 1003.57 1003.61 1003.73 1003.97 1004.21 1004.45 1004.61 1004.85 1005.05 1005.21 1005.41 1005.57 1005.73 1005.97 1006.17 1006.37 1006.61 1006.77 1006.93 1007.13 1007.29 1007.45 1007.61 1007.77
996.89 996.93 997.05 997.09 997.09 997.13 997.17 997.29 997.45 997.61 997.61 997.69 997.73 997.77 997.93 998.17 998.33 998.33 998.33 998.29 998.29 998.37 998.45 998.53 998.69 998.89 999.09 999.33 999.53 999.77 1000.01 1000.33 1000.65 1001.05 1001.41 1001.69 1001.89 1002.13 1002.41 1002.73 1003.05 1003.33 1003.61 1003.77 1003.89 1003.89 1003.89 1003.89 1004.01 1004.17 1004.45 1004.65 1004.85 1005.05 1005.17 1005.33 1005.53 1005.73 1005.89 1006.17 1006.37 1006.61 1006.85 1007.01 1007.17 1007.33 1007.45 1007.61 1007.77
997.05 997.09 997.17 997.29 997.37 997.49 997.69 997.85 997.89 997.93 997.93 997.93 998.01 998.17 998.37 998.57 998.65 998.69 998.61 998.61 998.69 998.81 998.97 999.13 999.29 999.49 999.73 999.89 1000.13 1000.41 1000.69 1000.97 1001.21 1001.45 1001.77 1002.09 1002.37 1002.69 1002.97 1003.21 1003.49 1003.69 1003.85 1004.01 1004.01 1004.01 1004.01 1004.01 1004.13 1004.29 1004.45 1004.61 1004.81 1005.01 1005.17 1005.33 1005.53 1005.69 1005.89 1006.13 1006.33 1006.61 1006.85 1007.09 1007.21 1007.33 1007.45 1007.57 1007.69
997.21 997.33 997.45 997.61 997.81 998.01 998.17 998.21 998.21 998.29 998.33 998.37 998.49 998.69 998.85 998.97 999.01 999.05 999.05 999.05 999.17 999.33 999.53 999.73 999.93 1000.09 1000.29 1000.45 1000.69 1000.97 1001.29 1001.57 1001.81 1002.01 1002.29 1002.53 1002.85 1003.13 1003.45 1003.69 1003.89 1004.09 1004.17 1004.17 1004.09 1004.05 1004.09 1004.17 1004.29 1004.37 1004.45 1004.53 1004.73 1004.97 1005.17 1005.41 1005.61 1005.85 1006.01 1006.29 1006.45 1006.61 1006.77 1007.01 1007.17 1007.29 1007.41 1007.49 1007.61
997.49 997.65 997.89 998.05 998.21 998.37 998.49 998.57 998.65 998.73 998.89 998.97 999.09 999.21 999.33 999.37 999.41 999.49 999.61 999.65 999.73 999.89 1000.13 1000.37 1000.49 1000.61 1000.81 1001.05 1001.33 1001.61 1001.85 1002.09 1002.33 1002.53 1002.73 1003.01 1003.33 1003.61 1003.89 1004.13 1004.33 1004.49 1004.45 1004.33 1004.17 1004.17 1004.21 1004.33 1004.41 1004.53 1004.65 1004.85 1005.13 1005.45 1005.73 1006.01 1006.25 1006.45 1006.61 1006.85 1006.93 1007.09 1007.25 1007.37 1007.45 1007.45 1007.45 1007.53 1007.65
997.93 998.09 998.25 998.45 998.65 998.77 998.89 999.01 999.09 999.25 999.41 999.57 999.69 999.77 999.85 999.85 999.93 1000.01 1000.17 1000.21 1000.33 1000.49 1000.73 1000.89 1001.05 1001.17 1001.37 1001.65 1001.93 1002.17 1002.41 1002.61 1002.85 1003.05 1003.29 1003.49 1003.77 1004.05 1004.33 1004.57 1004.73 1004.77 1004.73 1004.57 1004.41 1004.41 1004.45 1004.61 1004.69 1004.81 1004.93 1005.17 1005.45 1005.81 1006.13 1006.45 1006.65 1006.93 1007.17 1007.37 1007.57 1007.69 1007.73 1007.81 1007.89 1008.01 1008.17 1008.13 1008.01
998.33 998.53 998.73 998.89 999.05 999.17 999.33 999.45 999.61 999.73 999.89 1000.09 1000.21 1000.29 1000.29 1000.33 1000.45 1000.57 1000.69 1000.77 1000.97 1001.17 1001.33 1001.45 1001.49 1001.69 1001.93 1002.21 1002.45 1002.69 1002.93 1003.17 1003.37 1003.53 1003.69 1003.89 1004.17 1004.49 1004.73 1004.89 1005.05 1005.13 1005.09 1004.93 1004.81 1004.81 1004.89 1004.97 1005.09 1005.17 1005.33 1005.53 1005.81 1006.17 1006.57 1006.89 1007.17 1007.45 1007.73 1007.93 1008.01 1008.09 1008.09 1008.13 1008.17 1008.29 1008.33 1008.33 1008.33
998.81 999.01 999.17 999.33 999.45 999.61 999.81 999.97 1000.13 1000.25 1000.37 1000.53 1000.61 1000.61 1000.65 1000.73 1000.97 1001.13 1001.25 1001.41 1001.61 1001.77 1001.89 1001.85 1001.97 1002.21 1002.53 1002.77 1002.97 1003.17 1003.45 1003.69 1003.85 1003.97 1004.05 1004.29 1004.57 1004.85 1005.05 1005.21 1005.37 1005.49 1005.49 1005.41 1005.29 1005.25 1005.29 1005.41 1005.49 1005.61 1005.73 1005.93 1006.25 1006.61 1007.01 1007.33 1007.65 1007.97 1008.21 1008.41 1008.49 1008.53 1008.53 1008.53 1008.61 1008.65 1008.69 1008.65 1008.65
999.33 999.45 999.57 999.73 999.97 1000.17 1000.41 1000.57 1000.73 1000.81 1000.89 1000.89 1000.97 1000.97 1001.05 1001.29 1001.49 1001.69 1001.81 1001.93 1002.05 1002.13 1002.17 1002.21 1002.45 1002.77 1003.05 1003.25 1003.45 1003.69 1003.89 1004.01 1004.21 1004.37 1004.49 1004.65 1004.89 1005.09 1005.29 1005.49 1005.73 1005.89 1005.97 1005.89 1005.77 1005.73 1005.73 1005.81 1005.93 1006.05 1006.21 1006.41 1006.73 1007.09 1007.45 1007.73 1008.09 1008.37 1008.61 1008.81 1008.89 1009.01 1009.01 1008.97 1009.05 1009.05 1009.09 1009.05 1009.05
999.73 999.85 1000.01 1000.25 1000.53 1000.77 1000.97 1001.09 1001.25 1001.33 1001.33 1001.37 1001.41 1001.49 1001.65 1001.89 1002.05 1002.17 1002.29 1002.37 1002.41 1002.45 1002.57 1002.73 1002.97 1003.25 1003.53 1003.73 1003.89 1004.05 1004.29 1004.45 1004.65 1004.77 1004.89 1004.97 1005.09 1005.25 1005.49 1005.77 1006.13 1006.33 1006.45 1006.33 1006.29 1006.21 1006.21 1006.29 1006.37 1006.53 1006.65 1006.85 1007.17 1007.49 1007.85 1008.09 1008.41 1008.69 1008.97 1009.17 1009.29 1009.41 1009.45 1009.45 1009.45 1009.45 1009.45 1009.49 1009.49
1000.13 1000.29 1000.49 1000.77 1001.05 1001.25 1001.45 1001.61 1001.69 1001.73 1001.73 1001.81 1001.97 1002.13 1002.29 1002.45 1002.57 1002.65 1002.73 1002.85 1002.89 1002.97 1003.09 1003.29 1003.49 1003.73 1003.97 1004.13 1004.29 1004.45 1004.65 1004.89 1005.01 1005.13 1005.21 1005.29 1005.33 1005.49 1005.81 1006.21 1006.61 1006.81 1006.85 1006.73 1006.73 1006.69 1006.73 1006.73 1006.81 1006.89 1007.05 1007.25 1007.57 1007.89 1008.21 1008.45 1008.73 1009.01 1009.25 1009.45 1009.61 1009.73 1009.77 1009.77 1009.77 1009.81 1009.85 1009.89 1009.89
1000.53 1000.73 1000.97 1001.25 1001.49 1001.73 1001.89 1001.97 1002.01 1002.01 1002.09 1002.21 1002.45 1002.69 1002.81 1002.89 1003.05 1003.17 1003.25 1003.29 1003.29 1003.41 1003.61 1003.77 1003.97 1004.17 1004.37 1004.57 1004.73 1004.89 1005.05 1005.21 1005.37 1005.53 1005.61 1005.69 1005.73 1005.89 1006.21 1006.65 1007.01 1007.17 1007.17 1007.09 1007.05 1007.09 1007.13 1007.17 1007.25 1007.33 1007.45 1007.69 1008.01 1008.29 1008.53 1008.73 1009.01 1009.33 1009.57 1009.73 1009.89 1010.01 1010.01 1010.05 1010.13 1010.17 1010.21 1010.21 1010.21
1001.01 1001.17 1001.45 1001.73 1001.97 1002.17 1002.29 1002.33 1002.33 1002.37 1002.45 1002.65 1002.89 1003.09 1003.25 1003.33 1003.53 1003.69 1003.73 1003.69 1003.61 1003.73 1004.01 1004.29 1004.45 1004.61 1004.73 1004.97 1005.13 1005.33 1005.45 1005.61 1005.81 1006.01 1006.13 1006.17 1006.17 1006.29 1006.61 1006.97 1007.29 1007.41 1007.41 1007.41 1007.41 1007.45 1007.53 1007.61 1007.65 1007.69 1007.81 1008.01 1008.33 1008.57 1008.73 1008.97 1009.33 1009.61 1009.81 1009.97 1010.17 1010.29 1010.33 1010.41 1010.49 1010.57 1010.61 1010.61 1010.57
1001.53 1001.65 1001.89 1002.17 1002.45 1002.61 1002.73 1002.73 1002.73 1002.85 1003.05 1003.25 1003.37 1003.49 1003.61 1003.77 1003.97 1004.13 1004.17 1004.05 1004.01 1004.17 1004.45 1004.69 1004.85 1005.01 1005.17 1005.33 1005.53 1005.81 1006.01 1006.17 1006.33 1006.45 1006.61 1006.61 1006.61 1006.69 1006.93 1007.25 1007.53 1007.73 1007.77 1007.77 1007.85 1007.89 1007.93 1008.01 1008.05 1008.05 1008.13 1008.33 1008.61 1008.81 1009.05 1009.29 1009.61 1009.89 1010.09 1010.29 1010.45 1010.61 1010.65 1010.73 1010.81 1010.89 1010.89 1010.89 1010.89
1002.09 1002.17 1002.37 1002.65 1002.93 1003.13 1003.17 1003.21 1003.29 1003.45 1003.61 1003.81 1003.89 1003.93 1004.01 1004.17 1004.33 1004.53 1004.61 1004.57 1004.49 1004.65 1004.89 1005.13 1005.33 1005.53 1005.69 1005.85 1006.09 1006.41 1006.65 1006.77 1006.81 1006.89 1006.97 1007.09 1007.13 1007.17 1007.33 1007.61 1007.89 1008.09 1008.21 1008.25 1008.29 1008.29 1008.33 1008.33 1008.37 1008.37 1008.45 1008.61 1008.89 1009.09 1009.33 1009.61 1009.89 1010.17 1010.41 1010.61 1010.77 1010.89 1010.97 1011.05 1011.09 1011.17 1011.21 1011.25 1011.25
1002.65 1002.73 1002.89 1003.17 1003.41 1003.57 1003.65 1003.73 1003.89 1004.01 1004.17 1004.33 1004.33 1004.33 1004.45 1004.57 1004.77 1004.97 1005.09 1005.13 1005.05 1005.13 1005.33 1005.61 1005.97 1006.17 1006.33 1006.45 1006.61 1006.89 1007.09 1007.25 1007.25 1007.29 1007.37 1007.53 1007.65 1007.69 1007.73 1007.97 1008.29 1008.49 1008.61 1008.65 1008.65 1008.61 1008.61 1008.65 1008.69 1008.73 1008.81 1008.93 1009.13 1009.33 1009.61 1009.89 1010.17 1010.41 1010.65 1010.89 1011.05 1011.17 1011.25 1011.33 1011.45 1011.49 1011.57 1011.61 1011.61
1003.25 1003.33 1003.45 1003.65 1003.85 1003.97 1004.05 1004.21 1004.41 1004.61 1004.69 1004.73 1004.73 1004.77 1004.89 1005.05 1005.25 1005.45 1005.53 1005.61 1005.65 1005.73 1005.89 1006.21 1006.53 1006.73 1006.89 1006.93 1007.05 1007.17 1007.37 1007.57 1007.65 1007.73 1007.81 1007.97 1008.13 1008.17 1008.25 1008.41 1008.65 1008.89 1009.05 1009.05 1009.01 1008.97 1008.97 1009.01 1009.05 1009.09 1009.17 1009.29 1009.45 1009.61 1009.81 1010.05 1010.33 1010.65 1010.89 1011.09 1011.25 1011.41 1011.57 1011.65 1011.73 1011.81 1011.89 1011.93 1011.97
1003.85 1003.89 1003.97 1004.13 1004.29 1004.41 1004.53 1004.73 1004.93 1005.05 1005.13 1005.13 1005.17 1005.29 1005.45 1005.57 1005.73 1005.81 1005.89 1006.01 1006.17 1006.33 1006.53 1006.73 1006.97 1007.17 1007.25 1007.33 1007.33 1007.45 1007.61 1007.85 1008.05 1008.25 1008.33 1008.45 1008.57 1008.65 1008.73 1008.89 1009.05 1009.21 1009.37 1009.41 1009.37 1009.33 1009.33 1009.41 1009.45 1009.49 1009.57 1009.65 1009.73 1009.89 1010.01 1010.21 1010.53 1010.89 1011.17 1011.37 1011.49 1011.61 1011.77 1011.93 1012.05 1012.17 1012.25 1012.33 1012.33
Wind_Speed
8 7 7 7 6 6 5 4 4 4 5 5 6 6 6 6 5 5 5 5 5 5 5 5 5 5 7 10 12 12 12 12 12 13 14 15 14 14 15 15 16 15 15 18 18 16 14 12 11 9 8 8 9 9 9 9 10 10 10 10 9 10 11 11 11 10 10 9 7
8 8 7 6 5 5 4 4 4 4 4 4 5 5 5 5 5 5 5 5 5 5 5 5 5 6 8 10 12 12 12 12 12 13 15 17 17 17 16 16 16 16 17 18 17 14 12 12 11 9 8 7 9 9 9 9 10 11 11 11 9 9 9 9 10 10 10 9 7
8 7 6 6 5 5 5 5 5 5 5 4 4 4 4 4 5 5 5 5 5 4 4 5 5 7 8 10 11 11 11 11 12 14 15 17 18 18 17 15 15 16 17 17 15 14 12 12 11 9 8 8 9 9 9 9 10 10 11 12 9 8 8 8 9 9 8 7 7
7 7 6 6 7 7 6 5 6 6 6 5 4 4 4 4 4 4 4 5 5 5 4 5 6 6 8 10 10 11 11 11 12 13 15 16 18 19 18 16 17 17 17 16 16 15 14 13 10 9 9 10 10 10 9 9 10 10 9 9 8 8 8 8 8 7 7 7 7
6 6 6 6 6 6 5 5 6 6 6 5 4 4 4 4 4 4 4 5 5 5 5 6 6 6 7 10 11 12 12 12 12 13 14 16 18 18 18 19 18 18 17 16 16 15 15 13 10 8 9 9 9 9 10 11 11 10 8 7 7 7 7 8 7 7 6 6 6
6 5 5 4 5 5 4 4 5 5 5 4 5 5 5 4 4 5 5 6 6 7 7 7 7 7 7 11 12 12 12 12 13 13 14 15 16 17 18 20 20 18 16 16 16 16 15 12 9 8 8 8 8 9 10 12 11 10 9 7 7 7 7 8 7 7 7 7 8
4 4 4 4 5 5 4 4 4 5 5 5 6 7 7 6 6 6 7 7 7 7 7 6 7 7 8 11 13 12 12 13 15 15 14 14 15 16 17 19 19 18 17 17 16 15 13 11 9 8 8 7 7 9 11 11 10 10 9 8 7 7 7 8 7 7 8 11 11
3 3 4 4 5 5 4 4 5 5 5 5 6 7 8 8 8 8 8 8 7 7 7 7 9 10 10 12 13 13 13 16 16 15 14 14 16 16 17 18 18 18 18 17 16 14 13 10 8 8 8 8 7 9 11 12 12 11 10 10 8 7 7 7 7 8 9 12 13
3 3 4 4 4 4 4 4 5 5 5 5 6 7 8 9 9 9 9 8 8 8 8 8 10 12 13 13 13 14 14 16 16 15 15 16 17 17 17 17 18 17 17 16 16 15 13 9 8 8 8 8 8 9 11 13 13 12 11 9 8 8 8 8 9 10 11 13 13
4 4 4 4 5 5 5 5 5 5 5 5 6 6 7 8 9 10 10 9 8 9 10 10 11 13 14 14 14 14 14 15 16 16 16 16 17 17 17 16 17 17 16 15 14 14 13 10 9 9 9 8 9 11 12 13 13 12 11 8 9 10 10 9 10 11 11 12 13
4 4 4 4 5 5 5 5 4 4 4 5 5 6 7 8 10 11 11 10 10 11 12 12 13 14 14 14 14 15 15 15 16 17 17 17 17 17 17 16 17 17 16 14 13 12 11 9 10 10 10 9 10 12 13 13 13 12 11 9 10 11 12 11 11 11 11 12 13
4 4 4 4 5 5 5 5 4 3 3 3 4 5 7 9 12 12 12 12 12 13 14 14 15 15 15 13 14 15 16 17 17 17 17 17 17 17 17 17 17 17 16 15 13 11 10 10 11 12 12 11 10 10 12 13 13 12 12 11 11 12 12 12 11 10 10 11 12
4 4 4 4 5 5 5 4 3 3 2 3 4 5 7 9 11 12 13 13 13 13 13 15 16 16 15 14 15 17 18 18 17 16 15 16 16 16 16 16 16 16 15 14 12 11 10 11 12 13 13 12 10 10 12 13 13 12 12 12 12 12 12 12 11 10 10 10 10
4 3 3 4 4 5 5 4 3 2 2 3 4 5 5 7 9 11 12 13 13 13 13 15 15 14 15 17 18 19 20 17 16 15 15 15 15 15 15 15 15 15 14 12 12 12 12 12 13 13 13 12 11 11 12 13 13 12 12 13 13 12 12 12 11 11 11 11 10
4 3 3 3 4 4 4 4 3 2 2 2 4 4 4 6 8 9 10 12 13 13 13 13 13 14 17 20 20 20 19 17 16 15 15 15 15 15 15 14 14 14 13 12 12 12 12 12 13 13 12 12 12 12 12 12 12 12 12 12 12 12 12 12 12 11 11 11 11
4 3 3 3 4 4 4 3 2 2 1 1 2 2 3 5 7 8 10 12 12 12 12 13 14 16 18 21 20 19 18 17 16 16 15 15 15 15 14 14 14 13 13 13 12 11 11 11 12 12 12 12 12 12 12 12 12 11 11 11 12 12 12 12 12 11 11 11 11
4 4 3 4 4 4 4 2 1 1 1 1 2 3 4 5 6 8 9 11 11 12 13 14 15 16 18 19 19 18 16 16 15 15 14 14 15 15 14 14 13 13 13 13 12 12 11 11 10 11 11 11 11 11 11 11 11 11 11 11 11 11 11 11 11 11 11 11 11
4 4 4 4 4 4 3 2 1 1 1 2 3 4 4 4 6 8 9 9 11 12 14 15 16 17 19 20 18 16 14 15 14 14 13 14 14 14 14 13 13 12 12 12 12 12 11 11 11 10 10 10 10 10 10 11 10 10 10 10 10 10 10 10 11 11 11 11 11
4 4 4 4 4 4 3 3 1 0 1 1 3 4 5 5 7 8 9 10 11 13 15 16 18 19 20 20 17 14 13 13 14 13 13 13 13 13 13 13 12 12 12 11 11 11 11 11 11 10 10 9 10 10 10 10 10 10 10 10 10 10 10 10 10 10 10 10 10
4 4 4 4 4 4 3 3 2 0 1 1 1 3 6 8 8 9 11 12 13 15 17 19 19 20 19 18 15 13 12 11 12 13 13 13 12 12 12 12 12 12 12 11 11 11 11 11 10 10 10 10 10 10 10 9 9 9 9 8 9 9 9 9 9 9 9 10 10
4 4 4 4 4 3 3 4 3 2 1 1 1 2 6 10 10 11 12 14 17 19 20 21 20 19 17 15 13 12 11 10 12 12 13 12 13 12 12 12 12 11 11 11 11 11 11 10 10 10 10 10 10 10 10 9 9 8 8 7 7 8 8 9 9 9 9 10 10
4 4 4 4 4 3 3 4 4 4 4 3 3 4 5 9 10 12 14 15 17 18 18 17 16 15 14 12 12 12 11 10 11 11 11 11 11 11 11 11 11 11 11 11 11 11 11 10 10 9 9 9 9 9 9 8 8 8 8 8 8 8 8 9 9 9 10 10 10
5 5 5 4 4 3 3 4 5 6 6 6 5 4 5 5 5 8 11 13 11 11 11 11 12 13 13 13 14 14 13 12 12 11 11 11 10 10 9 9 9 8 7 6 8 9 10 10 9 9 8 8 8 8 8 8 8 8 8 8 8 8 8 8 9 9 9 10 10
6 5 5 4 4 4 4 4 3 3 4 6 7 8 8 9 8 8 9 10 10 11 11 11 12 13 14 14 15 15 15 15 14 14 13 12 12 11 11 10 9 8 7 5 4 3 5 8 8 8 8 7 7 7 8 8 8 8 9 9 9 9 8 9 9 9 9 9 9
6 6 5 5 5 4 4 6 7 8 9 9 10 11 11 11 10 10 11 12 13 14 14 14 14 14 14 14 15 15 15 15 15 15 14 13 12 12 11 9 8 7 6 4 5 5 4 5 6 7 7 6 7 7 7 7 8 8 9 9 9 9 8 8 9 9 9 9 9
7 7 6 6 6 8 10 10 10 10 11 11 12 12 12 11 11 12 12 13 14 15 15 15 14 13 13 14 15 15 14 13 14 14 14 14 14 13 11 9 7 6 5 5 6 7 7 7 6 6 6 6 7 7 7 7 8 8 9 9 9 10 10 10 9 9 9 9 9
7 7 8 10 12 12 12 11 12 12 12 12 12 12 12 11 12 13 14 14 15 15 15 14 13 13 13 14 15 15 14 13 14 14 15 15 14 13 12 9 8 6 6 6 8 10 11 10 8 7 6 5 5 5 4 4 4 4 4 4 5 6 7 7 9 10 11 10 10
10 12 13 14 14 14 13 13 13 13 13 13 13 12 12 13 14 14 14 14 14 14 13 12 11 11 11 12 14 15 15 14 13 13 14 15 15 14 12 10 9 8 9 10 12 14 14 14 13 12 10 9 8 8 8 8 8 7 7 6 5 4 3 2 1 2 3 4 5
15 15 15 15 15 14 14 14 14 14 14 13 13 13 13 14 15 15 14 14 14 13 11 9 9 10 11 12 14 14 15 14 13 13 14 15 15 14 13 12 11 11 13 16 16 17 17 17 17 16 15 12 9 8 7 7 7 7 7 7 7 6 6 6 6 6 5 4 3
16 16 15 16 15 15 15 15 14 14 13 12 13 14 15 15 16 15 15 15 14 13 11 10 11 12 13 14 14 14 14 13 13 13 15 16 16 15 14 13 12 13 15 18 18 19 19 19 19 18 17 15 12 10 9 8 8 8 7 6 7 7 7 7 7 7 6 5 5
16 16 16 16 16 16 16 15 14 14 13 12 14 15 16 16 16 15 15 14 13 12 12 14 16 16 16 14 14 14 14 13 13 13 15 16 16 15 15 15 14 14 16 18 19 20 20 20 20 19 18 16 13 11 10 10 10 9 8 8 8 8 8 8 8 8 8 7 6
16 17 17 17 17 16 16 15 15 14 14 14 15 16 17 16 15 14 14 13 13 14 15 16 18 17 16 15 15 15 14 14 14 14 14 15 15 16 15 16 15 15 16 18 19 20 20 21 21 20 19 18 14 13 12 11 11 10 10 10 11 11 10 8 8 9 9 8 7
17 17 17 17 17 16 15 15 15 15 15 15 16 16 16 15 14 14 13 13 13 15 16 17 17 16 16 15 15 15 15 15 15 15 15 15 16 16 16 15 14 14 16 18 19 19 20 21 21 20 19 18 15 13 12 12 10 10 10 11 11 11 11 11 10 9 9 9 8
18 18 17 17 16 16 15 15 15 15 16 16 16 16 15 15 14 14 13 13 13 14 15 16 16 15 15 14 15 15 14 14 14 14 15 15 16 17 16 14 11 13 16 17 18 19 19 20 20 20 19 17 14 13 12 12 11 11 11 11 11 11 11 11 11 10 10 9 8
18 18 18 17 16 15 15 14 15 15 16 17 16 16 15 15 15 14 13 13 14 15 15 15 15 15 15 15 15 15 15 15 15 15 15 15 16 17 17 15 13 14 17 18 18 18 18 18 18 18 17 14 12 11 12 13 13 13 12 12 12 12 12 12 11 11 10 9 8
17 18 18 17 16 15 14 14 15 16 17 17 16 15 15 15 14 13 12 13 15 16 16 15 15 15 16 16 15 15 15 15 15 15 14 14 16 17 17 16 15 16 18 18 18 17 17 17 17 16 15 12 10 10 11 12 12 12 13 13 12 12 12 12 11 11 10 9 9
17 18 18 17 16 15 14 15 16 16 16 16 15 15 14 14 13 12 11 12 15 16 16 15 16 16 16 16 16 15 15 15 15 14 14 14 15 16 17 16 15 16 17 18 18 17 17 16 16 15 13 11 10 10 10 10 10 11 12 12 12 11 11 10 10 11 11 11 10
17 17 17 17 16 15 15 15 16 16 16 15 14 14 13 13 13 12 11 12 14 15 16 16 16 16 16 16 16 16 15 14 14 15 15 15 15 16 16 16 15 15 15 17 17 17 17 17 16 14 13 11 10 10 9 9 10 10 10 10 10 10 10 9 9 10 11 13 13
16 17 17 17 16 16 15 16 16 15 15 14 14 13 13 13 12 11 11 12 13 15 16 16 16 15 15 15 15 16 16 15 15 15 16 15 15 16 16 16 15 14 15 17 18 18 18 17 17 15 13 11 10 9 9 9 10 10 10 9 9 9 10 9 8 9 10 14 17
16 16 17 17 16 16 16 16 16 14 13 13 14 14 14 13 12 12 12 12 13 14 15 15 15 14 13 14 15 16 16 16 16 16 16 16 16 16 17 15 15 14 15 17 18 18 18 18 17 15 13 10 9 8 8 9 10 10 9 8 8 8 8 8 8 8 9 11 14
16 16 17 17 16 16 16 16 15 14 13 14 14 13 12 12 12 12 12 12 13 13 13 13 14 14 13 13 14 16 17 18 17 16 16 16 16 16 16 15 15 14 15 16 18 19 18 18 17 15 12 9 8 8 8 8 10 10 10 9 8 8 8 8 8 8 8 9 10
Wind_Direction
171 173 175 176 175 174 171 164 157 157 162 166 169 171 171 168 167 167 168 170 176 180 183 186 186 179 170 167 171 174 177 179 179 177 176 175 174 172 173 179 175 161 144 135 135 137 140 143 143 143 145 148 153 156 158 160 155 152 150 151 152 154 155 156 155 153 153 156 160
176 177 176 174 170 165 160 153 151 155 162 167 166 166 166 164 165 165 166 171 177 180 180 180 181 177 172 169 172 173 175 178 176 173 171 171 169 167 167 171 165 151 138 133 134 135 138 141 141 142 143 147 152 156 159 158 152 149 150 152 152 153 153 156 156 154 152 154 156
179 178 175 171 165 161 158 157 158 162 165 165 162 161 162 163 165 165 167 172 176 179 179 176 177 175 172 169 171 172 173 176 174 170 167 166 165 165 164 161 150 141 135 133 134 136 138 141 142 143 145 148 152 154 155 153 150 150 151 153 152 152 153 157 156 154 152 156 158
179 177 174 170 165 162 160 160 161 164 166 163 156 155 158 163 164 164 165 167 174 181 183 176 174 173 171 167 169 170 172 175 175 170 164 163 164 163 158 148 140 137 135 135 136 137 139 141 142 144 147 149 151 153 153 152 151 151 151 152 151 151 154 157 156 156 156 159 163
182 180 176 170 164 160 156 154 158 162 165 161 155 155 158 163 162 162 163 167 178 186 187 178 175 172 168 164 168 170 171 174 175 169 163 161 163 159 151 141 138 136 136 136 137 138 140 140 142 145 148 150 152 154 153 151 150 150 150 149 150 152 154 155 156 157 158 160 165
182 177 170 160 155 152 151 150 153 157 160 158 157 159 163 167 167 167 170 175 182 187 186 179 175 171 166 163 169 171 172 173 174 168 160 155 155 151 144 138 137 136 136 137 138 139 139 140 140 143 146 147 148 150 150 149 149 149 148 147 149 150 151 154 156 157 160 163 166
173 164 154 145 147 148 149 147 150 154 157 158 162 166 169 173 174 175 176 179 182 185 185 181 175 171 166 164 170 172 173 172 172 166 158 151 148 143 139 135 134 135 136 137 138 139 139 140 140 142 144 145 146 148 149 150 150 149 149 148 149 149 150 153 154 157 162 166 167
153 143 138 138 142 145 147 148 152 156 162 167 171 173 175 178 181 182 183 185 185 185 184 184 177 173 169 165 170 172 171 170 169 164 158 153 150 144 137 132 133 135 137 138 139 140 140 140 141 144 146 147 147 149 151 151 151 150 150 149 149 150 152 154 155 159 164 166 167
133 128 127 131 139 145 149 152 157 162 168 175 179 180 181 185 188 189 190 191 189 186 184 185 177 172 169 166 168 169 169 169 166 162 159 157 153 146 139 133 134 135 137 139 140 141 141 140 142 146 149 151 151 152 153 153 153 151 151 149 149 151 153 154 157 160 163 166 168
134 127 127 132 141 147 151 155 159 165 171 179 185 188 190 192 195 196 196 194 187 184 184 185 175 170 167 164 164 166 167 167 164 162 160 157 151 144 139 135 136 137 138 141 141 142 141 141 144 147 150 151 151 152 153 155 154 153 152 150 151 153 155 156 157 159 162 166 168
127 125 130 137 145 149 151 155 159 166 175 186 197 202 203 203 202 199 196 190 184 182 181 180 171 167 164 161 161 163 166 165 163 161 158 153 146 142 139 138 138 139 139 142 143 143 143 143 145 148 150 151 151 153 154 156 155 154 152 150 151 153 155 157 158 159 162 165 168
117 119 125 134 143 147 150 154 160 169 183 201 217 220 215 208 200 194 189 184 180 178 175 171 165 163 161 158 159 161 163 163 162 158 152 146 142 139 139 139 139 140 141 142 143 144 144 145 147 148 150 151 152 154 157 158 157 155 153 151 153 154 157 158 158 159 161 163 166
114 115 122 131 139 144 148 154 161 170 190 220 239 234 219 201 188 181 177 177 174 170 165 161 159 158 157 155 156 159 161 162 158 152 145 140 138 138 138 138 139 140 141 142 144 146 146 147 148 150 151 152 154 156 158 160 160 159 157 156 157 158 159 159 159 159 160 162 167
113 114 119 127 133 139 145 153 159 170 197 235 250 239 213 181 168 165 167 169 167 161 154 151 152 153 154 154 156 159 160 157 149 142 138 136 136 137 137 138 140 141 142 142 145 146 147 148 150 151 152 153 155 157 160 162 164 164 163 161 162 163 163 162 161 160 161 164 169
116 115 116 118 126 133 142 152 157 171 201 242 255 236 193 152 148 152 157 161 158 152 145 144 148 151 153 156 159 159 156 146 139 135 134 135 136 136 137 138 139 141 142 142 144 146 147 149 150 151 152 153 155 157 161 164 167 168 168 167 166 166 166 164 163 163 165 168 171
122 119 115 114 120 129 137 145 155 170 192 236 247 204 161 138 140 145 149 151 149 144 139 140 148 152 155 158 159 156 148 139 135 135 135 136 137 137 137 138 139 140 141 141 143 144 146 147 149 150 151 152 154 157 160 164 168 170 171 170 169 168 167 165 165 166 168 170 173
127 125 120 116 120 125 131 135 144 161 166 168 153 153 149 139 140 143 144 144 142 139 137 140 148 153 156 158 157 152 145 138 137 137 138 138 138 137 137 138 138 138 139 139 141 142 144 145 146 148 150 151 152 156 160 164 167 169 169 168 167 167 166 164 166 167 169 172 175
132 131 126 120 121 123 123 121 119 155 161 143 131 140 148 143 141 142 143 142 138 136 137 141 148 153 156 157 155 151 144 141 139 138 137 136 136 135 134 134 134 135 136 137 139 141 142 144 145 147 149 150 152 155 158 162 164 165 164 163 162 162 162 163 165 167 169 173 176
137 136 131 125 124 122 120 114 105 274 260 133 122 132 140 145 142 142 142 141 136 137 139 143 149 153 155 155 152 147 141 138 135 133 131 130 130 130 130 131 131 132 134 135 137 139 141 143 145 147 149 150 151 154 156 159 160 160 159 156 156 156 158 161 164 167 169 173 176
142 140 136 129 127 125 122 119 121 156 297 320 72 128 138 146 145 143 141 141 140 142 145 148 151 152 152 149 143 136 131 128 126 125 125 125 125 126 127 128 129 131 134 136 137 139 141 143 145 148 149 150 150 151 153 154 155 155 154 152 152 154 156 159 163 166 170 174 177
144 139 133 127 127 128 129 129 136 151 204 282 295 148 147 155 155 150 147 148 150 151 152 153 151 150 146 139 128 120 117 116 119 120 121 123 125 127 129 130 132 134 136 138 139 140 142 143 146 147 148 148 148 148 148 149 150 152 152 152 152 154 156 159 163 168 173 177 180
143 134 125 121 124 129 136 143 152 162 176 200 218 195 167 160 160 157 154 152 152 151 150 147 139 133 127 116 106 101 100 102 105 108 111 115 118 121 124 127 129 132 136 142 143 144 144 144 146 146 146 145 144 143 144 146 149 152 154 156 156 157 159 161 166 172 177 181 184
137 128 124 121 128 140 154 169 174 176 179 186 190 165 135 123 134 141 141 138 133 128 123 118 106 101 98 94 93 92 92 91 89 88 88 90 91 92 94 100 101 103 108 119 130 139 144 146 146 146 144 142 142 143 145 148 152 156 159 161 161 162 163 166 171 176 180 183 185
129 127 129 133 148 161 170 172 156 134 121 113 101 92 84 77 80 92 102 104 94 89 86 86 84 84 86 87 89 90 91 90 86 82 78 77 77 76 75 73 69 63 57 50 58 97 134 145 146 145 144 144 148 152 155 158 160 162 164 165 165 167 168 171 174 177 180 182 184
127 133 142 151 154 142 113 87 77 72 71 75 77 75 73 73 75 78 81 82 79 77 75 76 78 78 78 79 80 81 82 84 84 82 79 74 70 67 64 62 58 54 47 38 36 48 80 122 136 142 146 149 154 158 161 162 164 166 167 168 168 169 171 174 176 179 181 183 184
137 142 143 134 105 86 76 72 73 74 73 72 72 73 75 77 76 76 76 76 75 74 72 72 72 73 74 75 74 74 74 75 77 78 77 73 68 64 61 58 53 47 39 33 48 64 76 90 111 132 147 156 159 162 164 166 167 167 168 169 170 173 175 178 182 185 187 188 189
132 117 100 86 81 76 73 71 68 66 65 66 69 73 77 79 78 75 73 74 75 74 72 71 71 72 73 73 72 72 72 72 73 74 75 74 71 67 63 57 50 42 36 38 60 72 77 81 90 101 113 124 120 115 111 108 106 111 120 137 160 173 179 183 186 189 193 195 194
92 85 81 77 76 74 70 66 64 63 62 64 68 72 75 77 76 74 72 72 73 73 71 69 69 70 71 70 70 71 72 72 72 72 72 71 69 66 63 58 51 43 40 46 62 70 73 75 77 78 79 78 73 68 63 62 57 53 51 47 46 50 57 62 108 202 208 208 203
80 79 78 77 74 71 68 66 64 64 64 66 69 72 74 74 73 72 71 69 69 69 70 70 70 70 71 72 71 71 70 70 72 73 73 72 69 66 63 59 53 46 43 49 61 67 70 72 73 75 77 79 79 76 71 67 64 58 52 46 45 46 48 51 50 44 34 15 14
78 77 76 75 73 71 68 67 67 67 68 70 72 73 73 72 70 69 68 67 67 68 71 75 75 74 73 73 73 72 71 70 72 74 75 74 71 67 63 59 55 49 47 50 60 66 69 71 72 74 76 78 79 77 73 68 66 62 57 51 46 46 47 51 52 49 41 32 35
77 77 76 74 72 70 68 67 67 69 71 73 74 74 72 70 69 69 69 70 72 73 75 76 75 74 73 73 73 74 74 73 73 73 74 75 73 71 66 62 56 52 50 52 61 66 69 71 72 73 74 76 77 77 76 73 70 66 60 53 47 45 45 49 46 42 38 36 39
77 76 75 73 72 71 70 69 69 69 70 72 72 72 71 70 70 70 70 72 74 75 74 74 74 74 73 73 73 74 73 73 72 73 75 77 77 74 69 63 57 53 51 54 62 67 70 72 73 73 74 76 77 78 77 76 73 70 65 59 53 49 46 47 46 43 40 39 41
77 76 75 74 73 73 72 72 71 70 70 70 70 70 71 71 70 69 69 69 71 71 71 72 72 73 73 74 74 74 73 72 73 73 75 77 77 75 71 65 58 54 53 56 62 67 70 73 74 75 76 77 78 78 78 78 75 71 66 61 56 53 51 50 48 46 43 42 44
78 77 75 75 74 74 73 74 74 73 72 70 69 69 69 70 70 69 69 69 70 71 71 71 72 73 73 72 73 74 73 72 71 72 73 74 75 74 71 66 61 55 54 58 62 66 70 73 75 76 76 77 78 78 78 78 76 72 68 64 60 56 53 51 49 47 45 44 46
78 77 76 74 74 74 74 75 76 76 74 73 71 70 69 69 69 69 71 73 74 74 73 72 73 73 72 71 71 71 72 72 70 70 70 73 75 75 73 69 63 56 55 58 61 65 68 72 75 76 77 78 79 79 79 78 76 72 69 66 61 57 54 52 49 47 45 44 46
76 76 76 74 72 72 73 74 74 74 74 73 72 71 70 69 68 68 70 74 76 75 74 73 72 72 72 70 68 67 67 69 70 69 69 71 74 75 74 71 63 57 55 57 60 63 66 70 74 76 78 79 80 79 79 78 76 73 70 66 62 58 55 54 51 48 46 44 44
74 75 75 74 71 70 70 71 71 72 71 71 72 72 71 71 68 66 67 71 75 75 74 72 71 70 70 70 68 66 64 66 69 69 68 68 71 74 74 71 64 58 55 56 60 63 66 68 72 75 78 81 81 80 79 78 77 74 71 68 64 60 57 56 54 51 49 47 46
72 75 76 75 73 70 69 68 69 70 71 71 71 71 71 72 69 66 64 67 74 76 75 73 71 70 71 72 71 69 66 65 67 68 68 66 67 71 73 71 65 60 57 57 60 63 66 68 70 73 77 82 82 82 82 81 79 76 73 70 66 61 58 57 55 53 52 50 51
69 72 75 76 75 73 71 69 69 70 71 72 71 71 70 71 70 68 66 67 72 75 76 75 74 73 74 75 76 73 70 66 65 66 66 65 65 67 70 71 67 63 59 59 61 63 65 67 69 71 75 81 83 84 84 84 82 79 76 74 70 65 61 58 56 55 53 53 53
65 68 71 73 74 73 72 70 69 69 70 71 71 70 70 70 72 72 71 70 71 74 76 76 76 76 76 76 77 75 71 66 63 62 63 64 64 65 67 69 68 65 61 60 62 64 65 67 69 70 73 78 82 85 87 87 85 81 78 74 73 69 64 59 58 56 54 53 53
62 64 67 68 69 70 70 70 69 68 67 67 68 68 69 71 73 74 74 74 74 74 75 77 77 76 76 75 75 74 71 67 62 61 61 62 62 62 63 66 66 64 62 61 62 64 66 67 68 70 72 77 80 84 87 88 86 83 79 76 73 72 68 64 60 57 55 53 53